TKSAT-1 (TUPAC KATARI)

Last updated on Tue Jun 17 2025 00:02:46 GMT+0000 (Coordinated Universal Time)

1 39481U 13075A 25167.55889457 -.00000183 00000+0 00000+0 0 9994 2 39481 0.0416 189.4039 0003326 248.8117 300.8542 1.00272154 41927
UTC large
Height (km)
Speed (km/s)
/
Latitude / Longitude
Inclination (degrees)
Orbital Period (minutes)
Azimuth
Elevation
Range (km)
Doppler Factor

Next 0 passes for location: London (51.5072 / 0.1276)

Sorry there are no passes over London.